| Back to River Map | <<< Previous Forecast Point | | | Next Forecast Point >>> | Printer Version | Graph Version |  |
|
STANISLAUS RIVER - ORANGE BLOSSOM (OBBC1)
| Latitude: 37.79º N | Longitude: 120.76º W | Elevation: 117 Feet | | Forecast Type: Official Location |
| Location: Stanislaus County in California | Bulletin Group: San Joaquin | River Group: San Joaquin |
| Issuance Time: | May 10 2026 at 7:44 AM PDT | Next Issuance: | May 11 2026 at 9:00 AM PDT
| |
| Action/Monitor: 13.0 Feet | Minor Flood: 16.0 Feet | Moderate Flood: 21.0 Feet | Major Flood: 22.0 Feet |
# Tabular Observed and Forecast Hydrograph Information
#
# Location: Stanislaus River - Orange Blossom (OBBC1)
#
# File Generation Time: 05/10/2026 at 07:44 AM PDT
# Data Interval: 1 Hour
#
# Most Recent Date & Time of Maximum Observed: 05/05/2026 at 07:00 AM PDT
# Maximum Observed Stage: 2.50 Feet
# Maximum Observed Flow: 398 cfs
#
# Earliest Date & Time of Maximum Forecast: 05/11/2026 at 09:00 PM PDT
# Maximum Forecast Stage: 4.37 Feet
# Maximum Forecast Flow: 1236 cfs
#
# OBSERVED
#
# Date & Time (Local) Stage (Feet) Flow (cfs) Trend Observed Status
# ---------------------------------------------------------------------------------
05/05/2026 07 AM PDT 2.50 398 Normal
05/05/2026 08 AM PDT 2.48 390 - Normal
05/05/2026 09 AM PDT 2.46 382 - Normal
05/05/2026 10 AM PDT 2.46 382 0 Normal
05/05/2026 11 AM PDT 2.46 382 0 Normal
05/05/2026 12 PM PDT 2.46 382 0 Normal
05/05/2026 01 PM PDT 2.46 382 0 Normal
05/05/2026 02 PM PDT 2.45 378 - Normal
05/05/2026 03 PM PDT 2.45 378 0 Normal
05/05/2026 04 PM PDT 2.45 378 0 Normal
05/05/2026 05 PM PDT 2.45 378 0 Normal
05/05/2026 06 PM PDT 2.45 378 0 Normal
05/05/2026 07 PM PDT 2.45 378 0 Normal
05/05/2026 08 PM PDT 2.45 378 0 Normal
05/05/2026 09 PM PDT 2.45 378 0 Normal
05/05/2026 10 PM PDT 2.46 382 + Normal
05/05/2026 11 PM PDT 2.46 382 0 Normal
05/06/2026 12 AM PDT 2.47 386 + Normal
05/06/2026 01 AM PDT 2.47 386 0 Normal
05/06/2026 02 AM PDT 2.47 386 0 Normal
05/06/2026 03 AM PDT 2.47 386 0 Normal
05/06/2026 04 AM PDT 2.47 386 0 Normal
05/06/2026 05 AM PDT 2.46 382 - Normal
05/06/2026 06 AM PDT 2.44 374 - Normal
05/06/2026 07 AM PDT 2.41 362 - Normal
05/06/2026 08 AM PDT 2.37 346 - Normal
05/06/2026 09 AM PDT 2.34 334 - Normal
05/06/2026 10 AM PDT 2.33 330 - Normal
05/06/2026 11 AM PDT 2.33 330 0 Normal
05/06/2026 12 PM PDT 2.33 330 0 Normal
05/06/2026 01 PM PDT 2.33 330 0 Normal
05/06/2026 02 PM PDT 2.33 330 0 Normal
05/06/2026 03 PM PDT 2.34 334 + Normal
05/06/2026 04 PM PDT 2.34 334 0 Normal
05/06/2026 05 PM PDT 2.34 334 0 Normal
05/06/2026 06 PM PDT 2.34 334 0 Normal
05/06/2026 07 PM PDT 2.33 330 - Normal
05/06/2026 08 PM PDT 2.33 330 0 Normal
05/06/2026 09 PM PDT 2.33 330 0 Normal
05/06/2026 10 PM PDT 2.33 330 0 Normal
05/06/2026 11 PM PDT 2.34 334 + Normal
05/07/2026 12 AM PDT 2.35 338 + Normal
05/07/2026 01 AM PDT 2.35 338 0 Normal
05/07/2026 02 AM PDT 2.36 342 + Normal
05/07/2026 03 AM PDT 2.36 342 0 Normal
05/07/2026 04 AM PDT 2.37 346 + Normal
05/07/2026 05 AM PDT 2.35 338 - Normal
05/07/2026 06 AM PDT 2.30 319 - Normal
05/07/2026 07 AM PDT 2.26 304 - Normal
05/07/2026 08 AM PDT 2.22 289 - Normal
05/07/2026 09 AM PDT 2.21 285 - Normal
05/07/2026 10 AM PDT 2.21 285 0 Normal
05/07/2026 11 AM PDT 2.21 285 0 Normal
05/07/2026 12 PM PDT 2.20 281 - Normal
05/07/2026 01 PM PDT 2.20 281 0 Normal
05/07/2026 02 PM PDT 2.20 281 0 Normal
05/07/2026 03 PM PDT 2.20 281 0 Normal
05/07/2026 04 PM PDT 2.21 285 + Normal
05/07/2026 05 PM PDT 2.22 289 + Normal
05/07/2026 06 PM PDT 2.23 292 + Normal
05/07/2026 07 PM PDT 2.23 292 0 Normal
05/07/2026 08 PM PDT 2.23 292 0 Normal
05/07/2026 09 PM PDT 2.23 292 0 Normal
05/07/2026 10 PM PDT 2.22 289 - Normal
05/07/2026 11 PM PDT 2.20 281 - Normal
05/08/2026 12 AM PDT 2.20 281 0 Normal
05/08/2026 01 AM PDT 2.21 285 + Normal
05/08/2026 02 AM PDT 2.21 285 0 Normal
05/08/2026 03 AM PDT 2.21 285 0 Normal
05/08/2026 04 AM PDT 2.21 285 0 Normal
05/08/2026 05 AM PDT 2.20 281 - Normal
05/08/2026 06 AM PDT 2.18 274 - Normal
05/08/2026 07 AM PDT 2.13 256 - Normal
05/08/2026 08 AM PDT 2.10 246 - Normal
05/08/2026 09 AM PDT 2.07 235 - Normal
05/08/2026 10 AM PDT 2.06 232 - Normal
05/08/2026 11 AM PDT 2.07 235 + Normal
05/08/2026 12 PM PDT 2.07 235 0 Normal
05/08/2026 01 PM PDT 2.07 235 0 Normal
05/08/2026 02 PM PDT 2.07 235 0 Normal
05/08/2026 03 PM PDT 2.08 239 + Normal
05/08/2026 04 PM PDT 2.08 239 0 Normal
05/08/2026 05 PM PDT 2.08 239 0 Normal
05/08/2026 06 PM PDT 2.08 239 0 Normal
05/08/2026 07 PM PDT 2.08 239 0 Normal
05/08/2026 08 PM PDT 2.08 239 0 Normal
05/08/2026 09 PM PDT 2.08 239 0 Normal
05/08/2026 10 PM PDT 2.08 239 0 Normal
05/08/2026 11 PM PDT 2.09 242 + Normal
05/09/2026 12 AM PDT 2.11 249 + Normal
05/09/2026 01 AM PDT 2.12 253 + Normal
05/09/2026 02 AM PDT 2.12 253 0 Normal
05/09/2026 03 AM PDT 2.12 253 0 Normal
05/09/2026 04 AM PDT 2.12 253 0 Normal
05/09/2026 05 AM PDT 2.11 249 - Normal
05/09/2026 06 AM PDT 2.08 239 - Normal
05/09/2026 07 AM PDT 2.04 225 - Normal
05/09/2026 08 AM PDT 2.00 212 - Normal
05/09/2026 09 AM PDT 1.96 199 - Normal
05/09/2026 10 AM PDT 1.94 193 - Normal
05/09/2026 11 AM PDT 1.93 190 - Normal
05/09/2026 12 PM PDT 1.93 190 0 Normal
05/09/2026 01 PM PDT 1.92 187 - Normal
05/09/2026 02 PM PDT 1.92 187 0 Normal
05/09/2026 03 PM PDT 1.92 187 0 Normal
05/09/2026 04 PM PDT 1.92 187 0 Normal
05/09/2026 05 PM PDT 1.92 187 0 Normal
05/09/2026 06 PM PDT 1.91 184 - Normal
05/09/2026 07 PM PDT 1.91 184 0 Normal
05/09/2026 08 PM PDT 1.92 187 + Normal
05/09/2026 09 PM PDT 1.92 187 0 Normal
05/09/2026 10 PM PDT 1.92 187 0 Normal
05/09/2026 11 PM PDT 1.92 187 0 Normal
05/10/2026 12 AM PDT 1.92 187 0 Normal
05/10/2026 01 AM PDT 1.92 187 0 Normal
05/10/2026 02 AM PDT 1.92 187 0 Normal
05/10/2026 03 AM PDT 1.92 187 0 Normal
05/10/2026 04 AM PDT 1.92 187 0 Normal
05/10/2026 05 AM PDT 1.92 187 0 Normal
05/10/2026 06 AM PDT 1.92 187 0 Normal
05/10/2026 07 AM PDT 1.92 187 0 Normal
#
# FORECAST
#
# Date & Time (Local) Stage (Feet) Flow (cfs) Trend Forecast Status
# ---------------------------------------------------------------------------------
05/10/2026 08 AM PDT 1.92 187 Normal
05/10/2026 09 AM PDT 1.92 187 0 Normal
05/10/2026 10 AM PDT 1.92 187 0 Normal
05/10/2026 11 AM PDT 1.92 187 0 Normal
05/10/2026 12 PM PDT 1.92 187 0 Normal
05/10/2026 01 PM PDT 1.92 187 0 Normal
05/10/2026 02 PM PDT 1.92 187 0 Normal
05/10/2026 03 PM PDT 1.92 187 0 Normal
05/10/2026 04 PM PDT 1.92 187 0 Normal
05/10/2026 05 PM PDT 1.92 187 0 Normal
05/10/2026 06 PM PDT 1.92 187 0 Normal
05/10/2026 07 PM PDT 1.92 187 0 Normal
05/10/2026 08 PM PDT 1.92 187 0 Normal
05/10/2026 09 PM PDT 1.92 187 0 Normal
05/10/2026 10 PM PDT 1.92 187 0 Normal
05/10/2026 11 PM PDT 1.92 187 0 Normal
05/11/2026 12 AM PDT 1.92 187 0 Normal
05/11/2026 01 AM PDT 1.92 187 0 Normal
05/11/2026 02 AM PDT 1.92 187 0 Normal
05/11/2026 03 AM PDT 1.92 187 0 Normal
05/11/2026 04 AM PDT 2.02 218 + Normal
05/11/2026 05 AM PDT 2.15 263 + Normal
05/11/2026 06 AM PDT 2.28 311 + Normal
05/11/2026 07 AM PDT 2.41 362 + Normal
05/11/2026 08 AM PDT 2.53 411 + Normal
05/11/2026 09 AM PDT 2.66 460 + Normal
05/11/2026 10 AM PDT 2.79 511 + Normal
05/11/2026 11 AM PDT 2.92 563 + Normal
05/11/2026 12 PM PDT 3.16 663 + Normal
05/11/2026 01 PM PDT 3.42 775 + Normal
05/11/2026 02 PM PDT 3.51 815 + Normal
05/11/2026 03 PM PDT 3.54 829 + Normal
05/11/2026 04 PM PDT 3.84 968 + Normal
05/11/2026 05 PM PDT 4.20 1148 + Normal
05/11/2026 06 PM PDT 4.31 1205 + Normal
05/11/2026 07 PM PDT 4.35 1226 + Normal
05/11/2026 08 PM PDT 4.36 1231 + Normal
05/11/2026 09 PM PDT 4.37 1236 + Normal
05/11/2026 10 PM PDT 4.37 1236 0 Normal
05/11/2026 11 PM PDT 4.37 1236 0 Normal
05/12/2026 12 AM PDT 4.37 1236 0 Normal
05/12/2026 01 AM PDT 4.37 1236 0 Normal
05/12/2026 02 AM PDT 4.37 1236 0 Normal
05/12/2026 03 AM PDT 4.37 1236 0 Normal
05/12/2026 04 AM PDT 4.37 1236 0 Normal
05/12/2026 05 AM PDT 4.37 1236 0 Normal
05/12/2026 06 AM PDT 4.37 1236 0 Normal
05/12/2026 07 AM PDT 4.37 1236 0 Normal
05/12/2026 08 AM PDT 4.37 1236 0 Normal
05/12/2026 09 AM PDT 4.37 1236 0 Normal
05/12/2026 10 AM PDT 4.37 1236 0 Normal
05/12/2026 11 AM PDT 4.37 1236 0 Normal
05/12/2026 12 PM PDT 4.37 1236 0 Normal
05/12/2026 01 PM PDT 4.37 1236 0 Normal
05/12/2026 02 PM PDT 4.37 1236 0 Normal
05/12/2026 03 PM PDT 4.37 1236 0 Normal
05/12/2026 04 PM PDT 4.37 1236 0 Normal
05/12/2026 05 PM PDT 4.37 1236 0 Normal
05/12/2026 06 PM PDT 4.37 1236 0 Normal
05/12/2026 07 PM PDT 4.37 1236 0 Normal
05/12/2026 08 PM PDT 4.37 1236 0 Normal
05/12/2026 09 PM PDT 4.37 1236 0 Normal
05/12/2026 10 PM PDT 4.37 1236 0 Normal
05/12/2026 11 PM PDT 4.37 1236 0 Normal
05/13/2026 12 AM PDT 4.37 1236 0 Normal
05/13/2026 01 AM PDT 4.37 1236 0 Normal
05/13/2026 02 AM PDT 4.37 1236 0 Normal
05/13/2026 03 AM PDT 4.37 1236 0 Normal
05/13/2026 04 AM PDT 4.37 1236 0 Normal
05/13/2026 05 AM PDT 4.37 1236 0 Normal
05/13/2026 06 AM PDT 4.37 1236 0 Normal
05/13/2026 07 AM PDT 4.37 1236 0 Normal
05/13/2026 08 AM PDT 4.37 1236 0 Normal
05/13/2026 09 AM PDT 4.37 1236 0 Normal
05/13/2026 10 AM PDT 4.37 1236 0 Normal
05/13/2026 11 AM PDT 4.37 1236 0 Normal
05/13/2026 12 PM PDT 4.37 1236 0 Normal
05/13/2026 01 PM PDT 4.37 1236 0 Normal
05/13/2026 02 PM PDT 4.37 1236 0 Normal
05/13/2026 03 PM PDT 4.37 1236 0 Normal
05/13/2026 04 PM PDT 4.37 1236 0 Normal
05/13/2026 05 PM PDT 4.37 1236 0 Normal
05/13/2026 06 PM PDT 4.37 1236 0 Normal
05/13/2026 07 PM PDT 4.37 1236 0 Normal
05/13/2026 08 PM PDT 4.37 1236 0 Normal
05/13/2026 09 PM PDT 4.37 1236 0 Normal
05/13/2026 10 PM PDT 4.37 1236 0 Normal
05/13/2026 11 PM PDT 4.37 1236 0 Normal
05/14/2026 12 AM PDT 4.37 1236 0 Normal
05/14/2026 01 AM PDT 4.37 1236 0 Normal
05/14/2026 02 AM PDT 4.37 1236 0 Normal
05/14/2026 03 AM PDT 4.37 1236 0 Normal
05/14/2026 04 AM PDT 4.37 1236 0 Normal
05/14/2026 05 AM PDT 4.37 1236 0 Normal
05/14/2026 06 AM PDT 4.37 1236 0 Normal
05/14/2026 07 AM PDT 4.37 1236 0 Normal
05/14/2026 08 AM PDT 4.37 1236 0 Normal
05/14/2026 09 AM PDT 4.37 1236 0 Normal
05/14/2026 10 AM PDT 4.37 1236 0 Normal
05/14/2026 11 AM PDT 4.37 1236 0 Normal
05/14/2026 12 PM PDT 4.37 1236 0 Normal
05/14/2026 01 PM PDT 4.37 1236 0 Normal
05/14/2026 02 PM PDT 4.37 1236 0 Normal
05/14/2026 03 PM PDT 4.36 1231 - Normal
05/14/2026 04 PM PDT 4.36 1231 0 Normal
05/14/2026 05 PM PDT 4.36 1231 0 Normal
05/14/2026 06 PM PDT 4.36 1231 0 Normal
05/14/2026 07 PM PDT 4.36 1231 0 Normal
05/14/2026 08 PM PDT 4.36 1231 0 Normal
05/14/2026 09 PM PDT 4.36 1231 0 Normal
05/14/2026 10 PM PDT 4.36 1231 0 Normal
05/14/2026 11 PM PDT 4.36 1231 0 Normal
05/15/2026 12 AM PDT 4.36 1231 0 Normal
05/15/2026 01 AM PDT 4.36 1231 0 Normal
05/15/2026 02 AM PDT 4.36 1231 0 Normal
05/15/2026 03 AM PDT 4.36 1231 0 Normal
05/15/2026 04 AM PDT 4.36 1231 0 Normal
05/15/2026 05 AM PDT 4.36 1231 0 Normal
#
# NOTE 1: Stages are rounded to the nearest hundredth (.01) of a foot.
# NOTE 2: Flows are rounded to the nearest (1) cfs.
# NOTE 3: Trends are determined using hourly change in unrounded stage and flow.
# NOTE 4: Maximum Values are determined using unrounded stage and flow.
|